[Date Prev][Date Next][Thread Prev][Thread Next] - [Date Index][Thread Index][Author Index]

2 LIne ISS Keps 5-8



ISS
1 25544U 98067A   01128.09756944  .00045481  00000-0  56893-3 0  9486
2 25544  51.5716 290.7998 0017349  23.7600 129.4534 15.59165789140811

----
Via the sarex mailing list at AMSAT.ORG courtesy of AMSAT-NA.
To unsubscribe, send "unsubscribe sarex" to Majordomo@amsat.org



AMSAT Top AMSAT Home